Showing default

FORMOSAT7-3/COSMIC2-3, 44343

Orbit data source: Space-Track

FORMOSAT7-3/COSMIC2-3, 44343 is a payload satellite owned by NSPO (TW) in LEO that was launched on Tue, 25 Jun 2019 UTC via an FALCON HEAVY launch vehicle from the Air Force Eastern Test Range (AFETR). Payload-class satellites include a variety of spacecraft equipped with specific instruments for various scientific and technological missions. These include communications satellites like Starlink; space stations such as the ISS; scientific satellites like the Hubble; Earth observation satellites from companies like Planet Labs, Umbra, and HawkEye 360; GPS; miniature CubeSats for education and research; and military/defense satellites.

Not visible in the next 10 days
Identifier
44343, 2019-036E
Orbit
LEO
Country
Flag of TWTW / TWN
Related business
Manufacturer
SSTL (Astrium)
Mission
Operational Civil Weather
Bus & Motor
SSTL-100, Unknown motor
Mass
278 kg wet, 278 kg dry
Launch date (UTC)
2019-06-25 (6 years ago)
Launch vehicle
FALCON HEAVY
Launch site
Air Force Eastern Test Range (AFETR)
Object type
Payload
Rocket body
Debris
Shape & HBR
Box + 1 Pan, 1.5 m
Radar Cross Section
2.189 m², Large (>1 m²)

Expand to show TLE details & history
Last TLE update: 9 hours ago

TLE from 9 hours ago
0 FORMOSAT7-3/COSMIC2-3
1 44343U 19036E   25307.65586078  .00006285  00000-0  38401-3 0  9999
2 44343  23.9998 288.1274 0000971 119.2385 240.8215 15.07275916349144
Epoch: 2025-11-03T15:44Z
TLE epoch observation values (Epoch: 2025-11-03T15:44:26.371Z)
Latitude
-0.00002°
Longitude
8.86336°
Altitude
542.735 km
Speed
7.594 km/s
True Right ascension
19h 12m 30s
True Declination
0° 00' 00"
Sunlit
Object was in daylight at epoch
Visualization orbit readout
Latitude
Unknown
Longitude
Unknown
Altitude
Unknown
Speed
Unknown
Apparent Right ascension
Unknown
Apparent Declination
Unknown
Sunlit
N/A
Visualization observer readout
Local Sidereal Time
20:55:42
Azimuth
Unknown
Elevation
Unknown
Doppler factor
Unknown
Orbital elements
Apogee altitude
549.991 km
Perigee altitude
548.646 km
Semi-major axis
6,927.455 km
Eccentricity
0.0001
Inclination
23.9998°
RAAN
288.1274°
Arg. of periapsis
119.2385°
True anomaly
240.81179°
Mean anomaly
240.8215°
Eccentric anomaly
240.81664°
Mean motion
3.76429 °/min
Orbital period
95.64 mins
BSTAR
0.00038401
Loading maneuver chart data...
Computing Atmospheric mass density...
Loading historical data...
Loading historical data...
Loading historical data...
Loading historical data...
Loading historical data...
Loading historical data...
Loading historical data...

Documentation

Showing up to 5 results
|